Tiempo cada hora Alibunar

Hoy, 28 Julio, Miércoles

Tiempo Temperatura Precipitaciones Viento Presión Humedad
00:00 +27°C° 0 mm 2 mps 753 mmHg 46%
01:00 +26°C° 0 mm 2 mps 753 mmHg 48%
02:00 +25°C° 0.1 mm 2 mps 753 mmHg 52%
03:00 +25°C° 0.1 mm 2 mps 753 mmHg 55%
04:00 +24°C° 0.1 mm 2 mps 753 mmHg 59%
05:00 +26°C° 0 mm 2 mps 753 mmHg 53%
06:00 +28°C° 0 mm 3 mps 753 mmHg 48%
07:00 +30°C° 0 mm 3 mps 753 mmHg 42%
08:00 +34°C° 0 mm 3 mps 753 mmHg 36%
09:00 +37°C° 0 mm 4 mps 752 mmHg 30%
10:00 +40°C° 0 mm 5 mps 752 mmHg 24%
11:00 +42°C° 0 mm 4 mps 752 mmHg 21%
12:00 +43°C° 0 mm 4 mps 751 mmHg 18%
13:00 +44°C° 0 mm 3 mps 751 mmHg 14%
14:00 +45°C° 0 mm 4 mps 750 mmHg 13%
15:00 +45°C° 0 mm 4 mps 750 mmHg 13%
16:00 +46°C° 0 mm 5 mps 749 mmHg 12%
17:00 +42°C° 0 mm 4 mps 750 mmHg 16%
18:00 +37°C° 0 mm 3 mps 750 mmHg 21%
19:00 +34°C° 0 mm 3 mps 750 mmHg 26%
20:00 +33°C° 0 mm 3 mps 750 mmHg 29%
21:00 +31°C° 0 mm 3 mps 751 mmHg 32%
22:00 +30°C° 0 mm 3 mps 751 mmHg 34%
23:00 +28°C° 0 mm 3 mps 751 mmHg 40%

Mañana, 29 Julio, Jueves

Tiempo Temperatura Precipitaciones Viento Presión Humedad
00:00 +27°C° 0 mm 3 mps 751 mmHg 45%
01:00 +26°C° 0 mm 3 mps 751 mmHg 51%
02:00 +25°C° 0 mm 2 mps 752 mmHg 53%
03:00 +24°C° 0 mm 2 mps 752 mmHg 54%
04:00 +23°C° 0 mm 2 mps 752 mmHg 56%
05:00 +25°C° 0 mm 2 mps 752 mmHg 53%
06:00 +27°C° 0 mm 2 mps 753 mmHg 49%
07:00 +28°C° 0 mm 2 mps 753 mmHg 45%
08:00 +31°C° 0 mm 2 mps 753 mmHg 41%
09:00 +34°C° 0 mm 3 mps 753 mmHg 37%
10:00 +36°C° 0 mm 3 mps 753 mmHg 33%
11:00 +37°C° 0 mm 3 mps 753 mmHg 30%
12:00 +38°C° 0 mm 3 mps 752 mmHg 27%
13:00 +40°C° 0 mm 4 mps 752 mmHg 24%
14:00 +40°C° 0 mm 4 mps 752 mmHg 23%
15:00 +39°C° 0 mm 3 mps 751 mmHg 22%
16:00 +40°C° 0 mm 3 mps 751 mmHg 21%
17:00 +37°C° 0 mm 3 mps 750 mmHg 24%
18:00 +35°C° 0 mm 2 mps 750 mmHg 27%
19:00 +32°C° 0 mm 2 mps 750 mmHg 30%
20:00 +31°C° 0 mm 2 mps 750 mmHg 32%
21:00 +29°C° 0 mm 2 mps 750 mmHg 33%
22:00 +28°C° 0 mm 2 mps 751 mmHg 34%
23:00 +27°C° 0 mm 2 mps 750 mmHg 35%

Pasado mañana, 30 Julio, Viernes

Tiempo Temperatura Precipitaciones Viento Presión Humedad
00:00 +27°C° 0 mm 2 mps 750 mmHg 36%
01:00 +26°C° 0 mm 2 mps 750 mmHg 37%
02:00 +26°C° 0 mm 1 mps 750 mmHg 39%
03:00 +25°C° 0 mm 1 mps 750 mmHg 40%
04:00 +25°C° 0 mm 1 mps 750 mmHg 42%
05:00 +27°C° 0 mm 1 mps 750 mmHg 39%
06:00 +29°C° 0 mm 2 mps 750 mmHg 36%
07:00 +31°C° 0 mm 2 mps 750 mmHg 33%
08:00 +34°C° 0 mm 2 mps 750 mmHg 29%
09:00 +37°C° 0 mm 2 mps 750 mmHg 26%
10:00 +39°C° 0 mm 2 mps 749 mmHg 22%
11:00 +41°C° 0 mm 2 mps 749 mmHg 20%
12:00 +43°C° 0 mm 3 mps 748 mmHg 17%
13:00 +44°C° 0 mm 3 mps 748 mmHg 14%
14:00 +44°C° 0 mm 3 mps 747 mmHg 14%
15:00 +44°C° 0 mm 4 mps 747 mmHg 13%
16:00 +44°C° 0 mm 4 mps 746 mmHg 13%
17:00 +42°C° 0 mm 4 mps 746 mmHg 16%
18:00 +38°C° 0 mm 3 mps 746 mmHg 19%
19:00 +35°C° 0 mm 3 mps 746 mmHg 22%
20:00 +34°C° 0 mm 2 mps 747 mmHg 25%
21:00 +31°C° 0 mm 2 mps 747 mmHg 28%
22:00 +29°C° 0 mm 1 mps 747 mmHg 31%
23:00 +28°C° 0 mm 1 mps 747 mmHg 33%

31 Julio, Sábado

Tiempo Temperatura Precipitaciones Viento Presión Humedad
00:00 +28°C° 0 mm 2 mps 747 mmHg 36%
01:00 +27°C° 0 mm 2 mps 747 mmHg 38%
02:00 +26°C° 0 mm 2 mps 747 mmHg 40%
03:00 +26°C° 0 mm 2 mps 747 mmHg 41%
04:00 +25°C° 0 mm 3 mps 748 mmHg 43%
05:00 +28°C° 0 mm 3 mps 748 mmHg 41%
06:00 +30°C° 0 mm 4 mps 748 mmHg 39%
07:00 +33°C° 0 mm 4 mps 748 mmHg 37%
08:00 +35°C° 0 mm 4 mps 748 mmHg 31%
09:00 +37°C° 0 mm 4 mps 748 mmHg 26%
10:00 +40°C° 0 mm 3 mps 748 mmHg 20%
11:00 +42°C° 0 mm 4 mps 747 mmHg 19%
12:00 +43°C° 0 mm 4 mps 747 mmHg 17%
13:00 +44°C° 0 mm 4 mps 747 mmHg 15%
14:00 +44°C° 0 mm 4 mps 746 mmHg 15%
15:00 +44°C° 0 mm 4 mps 746 mmHg 15%
16:00 +45°C° 0 mm 5 mps 746 mmHg 15%
17:00 +40°C° 0 mm 5 mps 746 mmHg 23%
18:00 +36°C° 0 mm 6 mps 747 mmHg 31%
19:00 +32°C° 0 mm 6 mps 747 mmHg 39%
20:00 +29°C° 0.1 mm 5 mps 748 mmHg 45%
21:00 +28°C° 0.1 mm 4 mps 748 mmHg 50%
22:00 +26°C° 0.1 mm 2 mps 749 mmHg 55%
23:00 +25°C° 0 mm 2 mps 749 mmHg 57%

1 Agosto, Domingo

Tiempo Temperatura Precipitaciones Viento Presión Humedad
00:00 +25°C° 0 mm 2 mps 748 mmHg 59%
01:00 +24°C° 0 mm 2 mps 748 mmHg 61%
02:00 +23°C° 0 mm 1 mps 748 mmHg 63%
03:00 +23°C° 0 mm 1 mps 749 mmHg 64%
04:00 +22°C° 0 mm 1 mps 749 mmHg 66%
05:00 +24°C° 0 mm 1 mps 749 mmHg 60%
06:00 +26°C° 0 mm 1 mps 749 mmHg 53%
07:00 +28°C° 0 mm 1 mps 749 mmHg 47%
08:00 +31°C° 0 mm 2 mps 749 mmHg 40%
09:00 +35°C° 0 mm 2 mps 749 mmHg 34%
10:00 +37°C° 0 mm 3 mps 748 mmHg 27%
11:00 +39°C° 0 mm 3 mps 748 mmHg 23%
12:00 +42°C° 0 mm 3 mps 747 mmHg 18%
13:00 +44°C° 0 mm 3 mps 747 mmHg 14%
14:00 +44°C° 0 mm 3 mps 746 mmHg 13%
15:00 +44°C° 0 mm 4 mps 745 mmHg 12%
16:00 +45°C° 0 mm 4 mps 745 mmHg 10%
17:00 +41°C° 0 mm 4 mps 745 mmHg 16%
18:00 +37°C° 0 mm 3 mps 745 mmHg 22%
19:00 +34°C° 0 mm 3 mps 746 mmHg 28%
20:00 +31°C° 0 mm 3 mps 746 mmHg 32%
21:00 +30°C° 0 mm 2 mps 747 mmHg 36%
22:00 +28°C° 0 mm 2 mps 747 mmHg 40%
23:00 +28°C° 0 mm 2 mps 748 mmHg 41%

2 Agosto, Lunes

Tiempo Temperatura Precipitaciones Viento Presión Humedad
00:00 +27°C° 0 mm 2 mps 748 mmHg 43%
01:00 +27°C° 0 mm 1 mps 748 mmHg 44%
02:00 +25°C° 0 mm 2 mps 748 mmHg 52%
03:00 +24°C° 0 mm 3 mps 749 mmHg 60%
04:00 +22°C° 0 mm 3 mps 749 mmHg 68%
05:00 +22°C° 0 mm 3 mps 750 mmHg 65%
06:00 +23°C° 0 mm 4 mps 750 mmHg 62%
07:00 +23°C° 0 mm 4 mps 751 mmHg 59%
08:00 +26°C° 0 mm 4 mps 751 mmHg 51%
09:00 +28°C° 0 mm 4 mps 751 mmHg 44%
10:00 +30°C° 0 mm 4 mps 751 mmHg 36%
11:00 +32°C° 0 mm 4 mps 750 mmHg 33%
12:00 +33°C° 0 mm 4 mps 750 mmHg 30%
13:00 +35°C° 0 mm 4 mps 750 mmHg 27%
14:00 +35°C° 0 mm 4 mps 749 mmHg 27%
15:00 +35°C° 0 mm 4 mps 749 mmHg 26%
16:00 +36°C° 0 mm 4 mps 749 mmHg 25%
17:00 +34°C° 0 mm 3 mps 749 mmHg 28%
18:00 +31°C° 0 mm 2 mps 749 mmHg 31%
19:00 +29°C° 0 mm 2 mps 749 mmHg 33%
20:00 +28°C° 0 mm 2 mps 749 mmHg 36%
21:00 +26°C° 0 mm 1 mps 749 mmHg 39%
22:00 +25°C° 0 mm 1 mps 750 mmHg 41%
23:00 +25°C° 0 mm 1 mps 750 mmHg 44%
Mostrar más

Necesitamos Su Consentimiento

Meteoprog y nuestros Proveedores de Servicios pueden almacenar y acceder a sus datos personales como cookies, identificadores de dispositivo u otras tecnologías similares de su dispositivo y procesar dichos datos para personalizar contenido y anuncios, además de ofrecer funciones de redes sociales y analizar el tráfico.

  • Almacenar y/o acceder a información en su dispositivo

    Se puede almacenar o acceder a cookies, identificadores de dispositivo u otra información de su dispositivo para los fines anteriormente indicados.

  • Anuncios y contenido personalizados, medición de anuncios y contenido, percepciones del público, y desarrollo de productos

    Los anuncios y el contenido pueden personalizarse en base a su perfil. Se pueden añadir más datos para personalizar mejor los anuncios y contenidos. Se puede medir el rendimiento de los anuncios y contenidos. Se puede obtener la percepción sobre el público que ha visto los anuncios y contenidos. Dichos datos pueden usarse para desarrollar o mejorar la experiencia del usuario, sistemas y software.

Al hacer clic en ‘Estoy De Acuerdo’ usted permitirá el uso de las cookies, identificadores de dispositivo, balizas web u otras tecnologías similares indicadas. Su configuración puede cambiarse desde el navegador de su dispositivo.

Para ciertos fines, los intereses legítimos pueden ser considerados por encima del consentimiento. Puede leer más sobre ello en nuestra Política de Privacidad y Cookies.